This is the latest recevied weather packets stored in our database for station/object SQ6XL-13. If no packets are shown the sender has not sent any weather packets the latest 10 day(s).
| Time | Temp. | Humidity | Pressure | Rain* | Wind** | Luminosity | Snow |
|---|---|---|---|---|---|---|---|
| 1787563980 | 17.22° C | 64% | 1023.1 hPa | 0 mm | - | - | - |
| 1787563495 | 17.22° C | 67% | 1023.2 hPa | 0 mm | - | - | - |
| 1787562960 | 17.22° C | 67% | 1023.2 hPa | 0 mm | - | - | - |
| 1787562431 | 17.22° C | 68% | 1023.2 hPa | 0 mm | - | - | - |
| 1787561900 | 17.22° C | 68% | 1023.2 hPa | 0 mm | - | - | - |
| 1787561330 | 16.67° C | 66% | 1023.1 hPa | 0 mm | - | - | - |
| 1787560730 | 17.22° C | 67% | 1023.2 hPa | 0 mm | - | - | - |
| 1787560245 | 16.67° C | 67% | 1023.2 hPa | 0 mm | - | - | - |
| 1787559755 | 16.67° C | 68% | 1023.2 hPa | 0 mm | - | - | - |
| 1787559195 | 16.67° C | 70% | 1023.1 hPa | 0 mm | - | - | - |
| 1787558655 | 16.67° C | 67% | 1023.2 hPa | 0.51 mm | - | - | - |
| 1787558105 | 17.22° C | 65% | 1023.1 hPa | 0 mm | - | - | - |
| 1787557600 | 17.22° C | 69% | 1023.1 hPa | 0 mm | - | - | - |
| 1787557105 | 16.67° C | 72% | 1023.1 hPa | 0 mm | - | - | - |
| 1787556580 | 16.11° C | 72% | 1023.1 hPa | 0 mm | - | - | - |
| 1787555994 | 15.56° C | 75% | 1023.1 hPa | 0 mm | - | - | - |
| 1787555440 | 15.56° C | 75% | 1023.2 hPa | 0 mm | - | - | - |
| 1787554885 | 15° C | 77% | 1023.1 hPa | 0 mm | - | - | - |
| 1787554370 | 15° C | 78% | 1023.1 hPa | 0 mm | - | - | - |
| 1787553850 | 14.44° C | 81% | 1023.2 hPa | 0 mm | - | - | - |
| 1787553290 | 14.44° C | 82% | 1023.1 hPa | 0 mm | - | - | - |
| 1787552755 | 13.89° C | 84% | 1023.2 hPa | 0 mm | - | - | - |
| 1787552224 | 13.33° C | 88% | 1023.2 hPa | 0 mm | - | - | - |
| 1787551745 | 12.78° C | 92% | 1023.2 hPa | 0 mm | - | - | - |
| 1787551185 | 12.22° C | 95% | 1023.1 hPa | 0 mm | - | - | - |
* Rain latest hour (hover to see other rain measurements)
** Current wind speed in m/s (hover to see current wind gust speed)